"read_dt","SO2 (ppb)","flags","PMT voltage (V)","lamp voltage (V)","lamp intensity (Hz)","internal temp (C)","react chamber temp (C)","sample flow (l/min)","pres (mmHg)","SO2 bkg (ppb)","SO2 coefficient"
2016-04-09 00:00:00,1786E-3,5C000400,-0724,0835,12188,023.3,045.3,0.263,765.1,01.16,0.508
2016-04-09 00:01:00,1736E-3,5C000400,-0724,0835,12229,023.3,045.3,0.263,765.0,01.16,0.508
2016-04-09 00:02:00,1840E-3,5C000400,-0724,0835,12137,023.3,045.3,0.263,765.1,01.16,0.508
2016-04-09 00:03:00,1718E-3,5C000400,-0724,0835,12073,023.4,045.3,0.263,765.1,01.16,0.508
2016-04-09 00:04:00,1882E-3,5C000400,-0724,0835,12211,023.4,045.3,0.263,765.0,01.16,0.508
2016-04-09 00:05:00,1727E-3,5C000400,-0724,0835,12060,023.4,045.3,0.264,765.0,01.16,0.508
2016-04-09 00:06:00,1668E-3,5C000400,-0724,0835,12133,023.4,045.3,0.264,765.1,01.16,0.508
2016-04-09 00:07:00,1819E-3,5C000400,-0724,0835,12174,023.4,045.3,0.264,765.0,01.16,0.508
2016-04-09 00:08:00,1941E-3,5C000400,-0724,0835,12203,023.4,045.3,0.264,765.0,01.16,0.508
2016-04-09 00:09:00,1931E-3,5C000400,-0724,0835,12076,023.4,045.3,0.263,765.0,01.16,0.508
2016-04-09 00:10:00,1849E-3,5C000400,-0724,0835,12110,023.4,045.3,0.264,765.0,01.16,0.508
2016-04-09 00:11:00,1808E-3,5C000400,-0724,0835,12052,023.4,045.3,0.264,765.1,01.16,0.508
2016-04-09 00:12:00,1775E-3,5C000400,-0724,0835,12122,023.4,045.3,0.263,765.1,01.16,0.508
2016-04-09 00:13:00,1770E-3,5C000400,-0724,0836,12257,023.5,045.3,0.263,765.0,01.16,0.508
2016-04-09 00:14:00,1654E-3,5C000400,-0724,0835,12151,023.4,045.3,0.264,765.0,01.16,0.508
2016-04-09 00:15:00,1792E-3,5C000400,-0724,0835,12001,023.4,045.3,0.263,765.0,01.16,0.508
2016-04-09 00:16:00,1595E-3,5C000400,-0724,0835,12063,023.5,045.3,0.263,765.0,01.16,0.508
2016-04-09 00:17:00,1752E-3,5C000400,-0724,0835,12071,023.5,045.3,0.263,765.0,01.16,0.508
2016-04-09 00:18:00,1761E-3,5C000400,-0724,0836,12121,023.5,045.3,0.263,765.0,01.16,0.508
2016-04-09 00:19:00,1765E-3,5C000400,-0724,0834,12113,023.5,045.3,0.263,764.9,01.16,0.508
2016-04-09 00:20:00,1670E-3,5C000400,-0724,0836,12103,023.5,045.3,0.263,764.9,01.16,0.508
2016-04-09 00:21:00,1800E-3,5C000400,-0724,0835,12051,023.5,045.3,0.263,764.9,01.16,0.508
2016-04-09 00:22:00,1727E-3,5C000400,-0724,0835,12189,023.5,045.3,0.263,764.9,01.16,0.508
2016-04-09 00:23:00,1831E-3,5C000400,-0724,0835,12236,023.5,045.3,0.264,764.9,01.16,0.508
2016-04-09 00:24:00,1806E-3,5C000400,-0724,0835,12245,023.5,045.3,0.263,764.9,01.16,0.508
2016-04-09 00:25:00,1802E-3,5C000400,-0724,0835,12111,023.5,045.3,0.263,764.9,01.16,0.508
2016-04-09 00:26:00,1825E-3,5C000400,-0724,0836,12190,023.5,045.3,0.263,764.9,01.16,0.508
2016-04-09 00:27:00,1755E-3,5C000400,-0724,0836,12238,023.5,045.3,0.263,764.9,01.16,0.508
2016-04-09 00:28:00,1813E-3,5C000400,-0724,0835,12072,023.6,045.3,0.263,764.9,01.16,0.508
2016-04-09 00:29:00,1825E-3,5C000400,-0724,0835,12097,023.6,045.3,0.263,764.9,01.16,0.508
2016-04-09 00:30:00,1795E-3,5C000400,-0724,0835,12223,023.6,045.3,0.263,764.9,01.16,0.508
2016-04-09 00:31:00,1754E-3,5C000400,-0724,0835,12180,023.6,045.3,0.263,764.9,01.16,0.508
2016-04-09 00:32:00,1811E-3,5C000400,-0724,0835,12167,023.6,045.3,0.263,764.9,01.16,0.508
2016-04-09 00:33:00,1897E-3,5C000400,-0724,0836,12088,023.6,045.3,0.263,764.9,01.16,0.508
2016-04-09 00:34:00,1715E-3,5C000400,-0724,0834,12201,023.6,045.3,0.263,764.9,01.16,0.508
2016-04-09 00:35:00,1762E-3,5C000400,-0724,0835,12131,023.6,045.3,0.263,764.9,01.16,0.508
2016-04-09 00:36:00,1623E-3,5C000400,-0724,0835,12349,023.6,045.3,0.263,764.9,01.16,0.508
2016-04-09 00:37:00,1761E-3,5C000400,-0724,0835,12103,023.6,045.3,0.263,764.9,01.16,0.508
2016-04-09 00:38:00,1797E-3,5C000400,-0724,0836,12158,023.6,045.3,0.263,764.9,01.16,0.508
2016-04-09 00:39:00,1710E-3,5C000400,-0724,0835,12239,023.6,045.3,0.263,764.9,01.16,0.508
2016-04-09 00:40:00,1800E-3,5C000400,-0724,0835,12093,023.7,045.3,0.263,764.9,01.16,0.508
2016-04-09 00:41:00,1816E-3,5C000400,-0724,0835,12054,023.7,045.3,0.263,764.9,01.16,0.508
2016-04-09 00:42:00,1885E-3,5C000400,-0724,0835,12126,023.7,045.3,0.263,764.9,01.16,0.508
2016-04-09 00:43:00,1782E-3,5C000400,-0724,0835,12049,023.7,045.3,0.263,764.9,01.16,0.508
2016-04-09 00:44:00,1690E-3,5C000400,-0724,0835,12173,023.7,045.3,0.263,764.9,01.16,0.508
2016-04-09 00:45:00,1855E-3,5C000400,-0724,0835,12240,023.7,045.3,0.263,764.9,01.16,0.508
2016-04-09 00:46:00,1842E-3,5C000400,-0724,0835,12065,023.7,045.3,0.263,764.9,01.16,0.508
2016-04-09 00:47:00,1732E-3,5C000400,-0724,0835,12144,023.7,045.3,0.263,764.9,01.16,0.508
2016-04-09 00:48:00,1723E-3,5C000400,-0724,0836,12126,023.7,045.3,0.263,764.9,01.16,0.508
2016-04-09 00:49:00,1739E-3,5C000400,-0724,0835,12126,023.7,045.3,0.262,764.9,01.16,0.508
2016-04-09 00:50:00,1878E-3,5C000400,-0724,0835,12209,023.8,045.3,0.263,764.9,01.16,0.508
2016-04-09 00:51:00,1719E-3,5C000400,-0724,0836,12279,023.8,045.3,0.263,764.9,01.16,0.508
2016-04-09 00:52:00,1737E-3,5C000400,-0724,0835,12237,023.8,045.3,0.263,764.9,01.16,0.508
2016-04-09 00:53:00,1735E-3,5C000400,-0724,0836,12243,023.8,045.3,0.263,764.9,01.16,0.508
2016-04-09 00:54:00,1658E-3,5C000400,-0724,0835,12150,023.8,045.3,0.263,764.9,01.16,0.508
2016-04-09 00:55:00,1856E-3,5C000400,-0724,0835,12039,023.8,045.3,0.262,764.9,01.16,0.508
2016-04-09 00:56:00,1701E-3,5C000400,-0724,0835,12107,023.8,045.3,0.262,764.9,01.16,0.508
2016-04-09 00:57:00,1719E-3,5C000400,-0724,0835,12234,023.8,045.3,0.262,764.9,01.16,0.508
2016-04-09 00:58:00,1943E-3,5C000400,-0724,0834,12064,023.8,045.3,0.262,764.8,01.16,0.508
2016-04-09 00:59:00,1771E-3,5C000400,-0724,0835,12200,023.8,045.3,0.262,764.9,01.16,0.508
2016-04-09 01:00:00,1855E-3,5C000400,-0724,0836,12255,023.9,045.3,0.262,764.8,01.16,0.508
2016-04-09 01:01:00,1666E-3,5C000400,-0724,0836,12099,023.8,045.3,0.263,764.8,01.16,0.508
2016-04-09 01:02:00,1870E-3,5C000400,-0724,0835,11983,023.9,045.3,0.263,764.8,01.16,0.508
2016-04-09 01:03:00,1741E-3,5C000400,-0724,0834,12060,023.9,045.3,0.263,764.8,01.16,0.508
2016-04-09 01:04:00,1732E-3,5C000400,-0724,0835,12249,023.9,045.3,0.263,764.8,01.16,0.508
2016-04-09 01:05:00,1849E-3,5C000400,-0724,0835,12282,023.9,045.3,0.263,764.8,01.16,0.508
2016-04-09 01:06:00,1872E-3,5C000400,-0724,0835,12074,023.9,045.3,0.263,764.8,01.16,0.508
2016-04-09 01:07:00,1834E-3,5C000400,-0724,0834,12118,023.9,045.3,0.263,764.8,01.16,0.508
2016-04-09 01:08:00,1835E-3,5C000400,-0724,0835,12089,023.9,045.3,0.263,764.8,01.16,0.508
2016-04-09 01:09:00,1827E-3,5C000400,-0724,0835,12272,023.9,045.3,0.263,764.8,01.16,0.508
2016-04-09 01:10:00,1825E-3,5C000400,-0724,0835,12233,023.9,045.3,0.263,764.8,01.16,0.508
2016-04-09 01:11:00,1791E-3,5C000400,-0724,0835,12098,023.9,045.3,0.262,764.8,01.16,0.508
2016-04-09 01:12:00,1669E-3,5C000400,-0724,0835,12135,023.9,045.3,0.262,764.8,01.16,0.508
2016-04-09 01:13:00,1777E-3,5C000400,-0724,0835,12225,023.9,045.3,0.263,764.8,01.16,0.508
2016-04-09 01:14:00,1824E-3,5C000400,-0724,0835,12015,023.9,045.3,0.262,764.8,01.16,0.508
2016-04-09 01:15:00,1804E-3,5C000400,-0724,0836,12219,024.0,045.3,0.263,764.8,01.16,0.508
2016-04-09 01:16:00,1820E-3,5C000400,-0724,0835,12169,024.0,045.3,0.263,764.8,01.16,0.508
2016-04-09 01:17:00,1759E-3,5C000400,-0724,0835,12147,024.0,045.3,0.263,764.8,01.16,0.508
2016-04-09 01:18:00,1733E-3,5C000400,-0724,0835,12207,024.0,045.3,0.263,764.8,01.16,0.508
2016-04-09 01:19:00,1815E-3,5C000400,-0724,0835,12068,024.0,045.3,0.263,764.8,01.16,0.508
2016-04-09 01:20:00,1786E-3,5C000400,-0724,0837,12047,024.0,045.3,0.262,764.7,01.16,0.508
2016-04-09 01:21:00,1963E-3,5C000400,-0724,0835,12176,024.0,045.3,0.262,764.7,01.16,0.508
2016-04-09 01:22:00,1851E-3,5C000400,-0724,0835,12211,024.0,045.3,0.263,764.7,01.16,0.508
2016-04-09 01:23:00,1784E-3,5C000400,-0724,0836,12068,024.0,045.3,0.263,764.7,01.16,0.508
2016-04-09 01:24:00,1721E-3,5C000400,-0724,0835,12179,024.0,045.3,0.262,764.7,01.16,0.508
2016-04-09 01:25:00,1730E-3,5C000400,-0724,0835,12085,024.0,045.3,0.262,764.7,01.16,0.508
2016-04-09 01:26:00,1805E-3,5C000400,-0724,0835,12112,024.0,045.3,0.263,764.7,01.16,0.508
2016-04-09 01:27:00,1697E-3,5C000400,-0724,0835,12160,024.0,045.3,0.262,764.7,01.16,0.508
2016-04-09 01:28:00,1870E-3,5C000400,-0724,0834,12179,024.0,045.3,0.262,764.7,01.16,0.508
2016-04-09 01:29:00,1759E-3,5C000400,-0724,0835,12144,024.0,045.3,0.262,764.7,01.16,0.508
2016-04-09 01:30:00,1836E-3,5C000400,-0724,0835,12077,024.1,045.3,0.262,764.7,01.16,0.508
2016-04-09 01:31:00,1649E-3,5C000400,-0724,0835,12139,024.0,045.3,0.262,764.7,01.16,0.508
2016-04-09 01:32:00,1815E-3,5C000400,-0724,0835,12085,024.0,045.3,0.262,764.7,01.16,0.508
2016-04-09 01:33:00,1756E-3,5C000400,-0724,0835,12191,024.1,045.3,0.263,764.7,01.16,0.508
2016-04-09 01:34:00,1726E-3,5C000400,-0724,0836,12226,024.1,045.3,0.262,764.7,01.16,0.508
2016-04-09 01:35:00,1719E-3,5C000400,-0724,0835,12135,024.1,045.3,0.262,764.7,01.16,0.508
2016-04-09 01:36:00,1683E-3,5C000400,-0724,0836,11993,024.1,045.3,0.262,764.7,01.16,0.508
2016-04-09 01:37:00,1919E-3,5C000400,-0724,0835,12183,024.1,045.3,0.262,764.7,01.16,0.508
2016-04-09 01:38:00,1766E-3,5C000400,-0724,0835,12049,024.1,045.3,0.262,764.7,01.16,0.508
2016-04-09 01:39:00,1749E-3,5C000400,-0724,0835,12206,024.1,045.3,0.262,764.7,01.16,0.508
2016-04-09 01:40:00,1724E-3,5C000400,-0724,0835,12105,024.1,045.3,0.262,764.7,01.16,0.508
2016-04-09 01:41:00,1827E-3,5C000400,-0724,0835,12169,024.1,045.3,0.262,764.7,01.16,0.508
2016-04-09 01:42:00,1865E-3,5C000400,-0724,0835,12243,024.1,045.3,0.262,764.7,01.16,0.508
2016-04-09 01:43:00,1710E-3,5C000400,-0724,0836,12158,024.1,045.3,0.262,764.7,01.16,0.508
2016-04-09 01:44:00,1784E-3,5C000400,-0724,0835,12131,024.1,045.3,0.262,764.7,01.16,0.508
2016-04-09 01:45:00,1739E-3,5C000400,-0724,0835,11956,024.1,045.3,0.262,764.7,01.16,0.508
2016-04-09 01:46:00,1747E-3,5C000400,-0724,0835,12243,024.1,045.3,0.262,764.6,01.16,0.508
2016-04-09 01:47:00,1703E-3,5C000400,-0724,0835,12255,024.1,045.3,0.262,764.6,01.16,0.508
2016-04-09 01:48:00,1772E-3,5C000400,-0724,0834,12090,024.1,045.3,0.262,764.7,01.16,0.508
2016-04-09 01:49:00,1752E-3,5C000400,-0724,0835,12173,024.1,045.3,0.262,764.6,01.16,0.508
2016-04-09 01:50:00,1797E-3,5C000400,-0724,0835,12216,024.1,045.3,0.262,764.6,01.16,0.508
2016-04-09 01:51:00,1777E-3,5C000400,-0724,0835,12185,024.1,045.3,0.262,764.6,01.16,0.508
2016-04-09 01:52:00,1720E-3,5C000400,-0724,0835,12009,024.2,045.3,0.262,764.6,01.16,0.508
2016-04-09 01:53:00,1816E-3,5C000400,-0724,0835,12176,024.2,045.3,0.262,764.6,01.16,0.508
2016-04-09 01:54:00,1771E-3,5C000400,-0724,0835,12138,024.2,045.3,0.262,764.6,01.16,0.508
2016-04-09 01:55:00,1720E-3,5C000400,-0724,0835,12123,024.2,045.3,0.262,764.6,01.16,0.508
2016-04-09 01:56:00,1716E-3,5C000400,-0724,0835,12095,024.2,045.3,0.262,764.6,01.16,0.508
2016-04-09 01:57:00,1860E-3,5C000400,-0724,0835,12060,024.2,045.3,0.262,764.6,01.16,0.508
2016-04-09 01:58:00,1685E-3,5C000400,-0724,0835,12096,024.2,045.3,0.262,764.6,01.16,0.508
2016-04-09 01:59:00,1761E-3,5C000400,-0724,0835,12207,024.2,045.3,0.262,764.6,01.16,0.508
2016-04-09 02:00:00,1763E-3,5C000400,-0724,0835,12210,024.2,045.3,0.262,764.6,01.16,0.508
2016-04-09 02:01:00,1686E-3,5C000400,-0724,0835,12210,024.2,045.3,0.262,764.6,01.16,0.508
2016-04-09 02:02:00,1871E-3,5C000400,-0724,0835,12219,024.2,045.3,0.262,764.6,01.16,0.508
2016-04-09 02:03:00,1798E-3,5C000400,-0724,0835,12157,024.2,045.3,0.262,764.6,01.16,0.508
2016-04-09 02:04:00,1842E-3,5C000400,-0724,0836,12177,024.2,045.3,0.262,764.6,01.16,0.508
2016-04-09 02:05:00,1732E-3,5C000400,-0724,0835,11998,024.2,045.3,0.262,764.6,01.16,0.508
2016-04-09 02:06:00,1756E-3,5C000400,-0724,0835,12081,024.2,045.3,0.262,764.6,01.16,0.508
2016-04-09 02:07:00,1835E-3,5C000400,-0724,0836,12253,024.2,045.3,0.262,764.5,01.16,0.508
2016-04-09 02:08:00,1855E-3,5C000400,-0724,0835,12186,024.2,045.3,0.262,764.5,01.16,0.508
2016-04-09 02:09:00,1730E-3,5C000400,-0724,0835,12084,024.3,045.3,0.262,764.5,01.16,0.508
2016-04-09 02:10:00,1738E-3,5C000400,-0724,0835,12231,024.2,045.3,0.262,764.5,01.16,0.508
2016-04-09 02:11:00,1917E-3,5C000400,-0724,0835,12138,024.3,045.3,0.262,764.6,01.16,0.508
2016-04-09 02:12:00,1775E-3,5C000400,-0724,0835,12257,024.3,045.3,0.262,764.5,01.16,0.508
2016-04-09 02:13:00,1682E-3,5C000400,-0724,0836,12242,024.3,045.3,0.262,764.5,01.16,0.508
2016-04-09 02:14:00,1742E-3,5C000400,-0724,0835,12150,024.3,045.3,0.262,764.6,01.16,0.508
2016-04-09 02:15:00,1663E-3,5C000400,-0724,0835,12243,024.3,045.3,0.262,764.5,01.16,0.508
2016-04-09 02:16:00,1891E-3,5C000400,-0724,0835,12024,024.3,045.3,0.262,764.6,01.16,0.508
2016-04-09 02:17:00,1834E-3,5C000400,-0724,0835,12187,024.3,045.3,0.262,764.6,01.16,0.508
2016-04-09 02:18:00,1760E-3,5C000400,-0724,0835,12067,024.3,045.3,0.262,764.6,01.16,0.508
2016-04-09 02:19:00,1707E-3,5C000400,-0724,0835,12187,024.3,045.3,0.262,764.6,01.16,0.508
2016-04-09 02:20:00,1862E-3,5C000400,-0724,0835,12187,024.3,045.4,0.262,764.5,01.16,0.508
2016-04-09 02:21:00,1648E-3,5C000400,-0724,0835,12168,024.3,045.3,0.262,764.5,01.16,0.508
2016-04-09 02:22:00,1785E-3,5C000400,-0724,0835,12035,024.3,045.3,0.262,764.5,01.16,0.508
2016-04-09 02:23:00,1749E-3,5C000400,-0724,0835,12239,024.3,045.3,0.262,764.5,01.16,0.508
2016-04-09 02:24:00,1789E-3,5C000400,-0724,0835,12136,024.3,045.3,0.262,764.5,01.16,0.508
2016-04-09 02:25:00,1726E-3,5C000400,-0724,0834,12304,024.3,045.3,0.262,764.5,01.16,0.508
2016-04-09 02:26:00,1849E-3,5C000400,-0724,0835,12046,024.3,045.3,0.262,764.5,01.16,0.508
2016-04-09 02:27:00,1649E-3,5C000400,-0724,0836,12338,024.4,045.3,0.262,764.5,01.16,0.508
2016-04-09 02:28:00,1858E-3,5C000400,-0724,0836,12344,024.4,045.3,0.262,764.5,01.16,0.508
2016-04-09 02:29:00,1791E-3,5C000400,-0724,0835,12056,024.3,045.3,0.262,764.5,01.16,0.508
2016-04-09 02:30:00,1729E-3,5C000400,-0724,0836,12241,024.4,045.3,0.261,764.5,01.16,0.508
2016-04-09 02:31:00,1823E-3,5C000400,-0724,0835,12323,024.4,045.3,0.262,764.5,01.16,0.508
2016-04-09 02:32:00,1614E-3,5C000400,-0724,0836,12143,024.4,045.3,0.262,764.5,01.16,0.508
2016-04-09 02:33:00,1716E-3,5C000400,-0724,0835,12030,024.4,045.3,0.262,764.5,01.16,0.508
2016-04-09 02:34:00,1729E-3,5C000400,-0724,0835,12094,024.4,045.3,0.261,764.5,01.16,0.508
2016-04-09 02:35:00,1964E-3,5C000400,-0724,0834,12083,024.4,045.3,0.262,764.5,01.16,0.508
2016-04-09 02:36:00,1802E-3,5C000400,-0724,0835,12180,024.4,045.3,0.262,764.5,01.16,0.508
2016-04-09 02:37:00,1673E-3,5C000400,-0724,0835,12161,024.4,045.3,0.262,764.5,01.16,0.508
2016-04-09 02:38:00,1854E-3,5C000400,-0724,0835,12123,024.4,045.3,0.261,764.5,01.16,0.508
2016-04-09 02:39:00,1823E-3,5C000400,-0724,0835,12175,024.4,045.3,0.262,764.5,01.16,0.508
2016-04-09 02:40:00,1708E-3,5C000400,-0724,0835,12102,024.4,045.3,0.262,764.5,01.16,0.508
2016-04-09 02:41:00,1771E-3,5C000400,-0724,0835,12046,024.4,045.3,0.262,764.5,01.16,0.508
2016-04-09 02:42:00,1823E-3,5C000400,-0724,0835,11982,024.4,045.3,0.261,764.5,01.16,0.508
2016-04-09 02:43:00,1621E-3,5C000400,-0724,0835,12191,024.4,045.3,0.262,764.5,01.16,0.508
2016-04-09 02:44:00,1822E-3,5C000400,-0724,0835,12138,024.4,045.3,0.262,764.5,01.16,0.508
2016-04-09 02:45:00,1780E-3,5C000400,-0724,0835,12180,024.4,045.3,0.261,764.5,01.16,0.508
2016-04-09 02:46:00,1869E-3,5C000400,-0724,0835,12100,024.4,045.3,0.262,764.5,01.16,0.508
2016-04-09 02:47:00,1570E-3,5C000400,-0724,0835,12088,024.5,045.3,0.262,764.5,01.16,0.508
2016-04-09 02:48:00,1879E-3,5C000400,-0724,0836,12153,024.5,045.3,0.262,764.5,01.16,0.508
2016-04-09 02:49:00,1865E-3,5C000400,-0724,0835,12286,024.5,045.3,0.261,764.5,01.16,0.508
2016-04-09 02:50:00,1788E-3,5C000400,-0724,0835,12161,024.5,045.3,0.262,764.5,01.16,0.508
2016-04-09 02:51:00,1745E-3,5C000400,-0724,0835,12086,024.5,045.3,0.262,764.5,01.16,0.508
2016-04-09 02:52:00,1898E-3,5C000400,-0724,0835,12180,024.5,045.3,0.261,764.5,01.16,0.508
2016-04-09 02:53:00,1793E-3,5C000400,-0724,0836,11903,024.5,045.3,0.262,764.5,01.16,0.508
2016-04-09 02:54:00,1755E-3,5C000400,-0724,0835,12070,024.5,045.3,0.262,764.5,01.16,0.508
2016-04-09 02:55:00,1782E-3,5C000400,-0724,0835,12187,024.5,045.3,0.261,764.5,01.16,0.508
2016-04-09 02:56:00,1841E-3,5C000400,-0724,0836,12203,024.5,045.3,0.262,764.5,01.16,0.508
2016-04-09 02:57:00,1857E-3,5C000400,-0724,0835,12154,024.5,045.3,0.262,764.5,01.16,0.508
2016-04-09 02:58:00,1792E-3,5C000400,-0724,0835,12234,024.5,045.4,0.261,764.5,01.16,0.508
2016-04-09 02:59:00,1860E-3,5C000400,-0724,0835,12149,024.6,045.3,0.261,764.5,01.16,0.508
2016-04-09 03:00:00,1645E-3,5C000400,-0724,0835,12094,024.6,045.3,0.262,764.5,01.16,0.508
2016-04-09 03:01:00,1769E-3,5C000400,-0724,0835,12011,024.5,045.3,0.262,764.5,01.16,0.508
2016-04-09 03:02:00,1735E-3,5C000400,-0724,0835,12174,024.6,045.3,0.261,764.5,01.16,0.508
2016-04-09 03:03:00,1744E-3,5C000400,-0724,0834,12111,024.6,045.3,0.261,764.5,01.16,0.508
2016-04-09 03:04:00,1674E-3,5C000400,-0724,0834,12129,024.6,045.3,0.262,764.5,01.16,0.508
2016-04-09 03:05:00,1722E-3,5C000400,-0724,0835,12095,024.6,045.3,0.262,764.5,01.16,0.508
2016-04-09 03:06:00,1835E-3,5C000400,-0724,0835,12242,024.6,045.3,0.261,764.5,01.16,0.508
2016-04-09 03:07:00,1708E-3,5C000400,-0724,0837,12144,024.6,045.3,0.262,764.5,01.16,0.508
2016-04-09 03:08:00,1858E-3,5C000400,-0724,0836,12071,024.6,045.3,0.262,764.4,01.16,0.508
2016-04-09 03:09:00,1733E-3,5C000400,-0724,0836,12145,024.6,045.3,0.262,764.4,01.16,0.508
2016-04-09 03:10:00,1745E-3,5C000400,-0724,0835,12249,024.6,045.3,0.261,764.4,01.16,0.508
2016-04-09 03:11:00,1698E-3,5C000400,-0724,0835,12143,024.6,045.3,0.261,764.5,01.16,0.508
2016-04-09 03:12:00,1869E-3,5C000400,-0724,0836,12088,024.6,045.3,0.261,764.5,01.16,0.508
2016-04-09 03:13:00,1863E-3,5C000400,-0724,0835,12188,024.6,045.3,0.262,764.5,01.16,0.508
2016-04-09 03:14:00,1882E-3,5C000400,-0724,0836,12081,024.6,045.3,0.261,764.5,01.16,0.508
2016-04-09 03:15:00,1751E-3,5C000400,-0724,0835,12101,024.7,045.3,0.261,764.5,01.16,0.508
2016-04-09 03:16:00,1784E-3,5C000400,-0724,0835,12287,024.6,045.3,0.261,764.5,01.16,0.508
2016-04-09 03:17:00,1905E-3,5C000400,-0724,0835,12079,024.7,045.3,0.261,764.5,01.16,0.508
2016-04-09 03:18:00,1774E-3,5C000400,-0724,0835,12151,024.7,045.3,0.261,764.5,01.16,0.508
2016-04-09 03:19:00,1834E-3,5C000400,-0724,0835,12141,024.7,045.3,0.261,764.4,01.16,0.508
2016-04-09 03:20:00,1709E-3,5C000400,-0724,0836,12052,024.7,045.3,0.261,764.4,01.16,0.508
2016-04-09 03:21:00,1684E-3,5C000400,-0724,0836,12150,024.7,045.3,0.261,764.4,01.16,0.508
2016-04-09 03:22:00,1696E-3,5C000400,-0724,0835,12202,024.7,045.3,0.261,764.4,01.16,0.508
2016-04-09 03:23:00,1611E-3,5C000400,-0724,0835,12131,024.7,045.3,0.261,764.4,01.16,0.508
2016-04-09 03:24:00,1785E-3,5C000400,-0724,0835,12101,024.7,045.3,0.261,764.4,01.16,0.508
2016-04-09 03:25:00,1864E-3,5C000400,-0724,0836,12092,024.7,045.3,0.261,764.4,01.16,0.508
2016-04-09 03:26:00,1820E-3,5C000400,-0724,0836,12198,024.8,045.3,0.261,764.4,01.16,0.508
2016-04-09 03:27:00,1727E-3,5C000400,-0724,0836,12179,024.7,045.3,0.261,764.4,01.16,0.508
2016-04-09 03:28:00,1759E-3,5C000400,-0724,0836,12139,024.8,045.3,0.261,764.4,01.16,0.508
2016-04-09 03:29:00,1692E-3,5C000400,-0724,0836,12013,024.7,045.3,0.261,764.4,01.16,0.508
2016-04-09 03:30:00,1670E-3,5C000400,-0724,0836,12178,024.7,045.3,0.261,764.4,01.16,0.508
2016-04-09 03:31:00,1796E-3,5C000400,-0724,0835,12065,024.7,045.3,0.261,764.4,01.16,0.508
2016-04-09 03:32:00,1570E-3,5C000400,-0724,0837,12139,024.8,045.3,0.261,764.4,01.16,0.508
2016-04-09 03:33:00,1748E-3,5C000400,-0724,0836,12157,024.8,045.3,0.261,764.3,01.16,0.508
2016-04-09 03:34:00,1782E-3,5C000400,-0724,0835,12051,024.8,045.3,0.261,764.4,01.16,0.508
2016-04-09 03:35:00,1763E-3,5C000400,-0724,0835,12053,024.8,045.3,0.261,764.4,01.16,0.508
2016-04-09 03:36:00,1891E-3,5C000400,-0724,0836,12085,024.8,045.3,0.261,764.4,01.16,0.508
2016-04-09 03:37:00,1776E-3,5C000400,-0724,0835,12153,024.8,045.3,0.261,764.4,01.16,0.508
2016-04-09 03:38:00,1788E-3,5C000400,-0724,0836,12158,024.8,045.4,0.261,764.3,01.16,0.508
2016-04-09 03:39:00,1628E-3,5C000400,-0724,0835,12189,024.8,045.3,0.261,764.3,01.16,0.508
2016-04-09 03:40:00,1745E-3,5C000400,-0724,0836,12170,024.8,045.3,0.260,764.3,01.16,0.508
2016-04-09 03:41:00,1684E-3,5C000400,-0724,0835,12098,024.8,045.3,0.261,764.3,01.16,0.508
2016-04-09 03:42:00,1811E-3,5C000400,-0724,0836,12267,024.9,045.3,0.261,764.3,01.16,0.508
2016-04-09 03:43:00,1718E-3,5C000400,-0724,0836,12254,024.8,045.3,0.261,764.3,01.16,0.508
2016-04-09 03:44:00,1824E-3,5C000400,-0724,0836,12204,024.8,045.3,0.261,764.3,01.16,0.508
2016-04-09 03:45:00,1853E-3,5C000400,-0724,0836,12191,024.8,045.3,0.260,764.3,01.16,0.508
2016-04-09 03:46:00,1779E-3,5C000400,-0724,0835,12115,024.9,045.3,0.261,764.3,01.16,0.508
2016-04-09 03:47:00,1777E-3,5C000400,-0724,0835,12020,024.8,045.3,0.261,764.3,01.16,0.508
2016-04-09 03:48:00,1906E-3,5C000400,-0724,0835,11980,024.9,045.3,0.261,764.3,01.16,0.508
2016-04-09 03:49:00,1905E-3,5C000400,-0724,0835,12189,024.8,045.3,0.260,764.3,01.16,0.508
2016-04-09 03:50:00,1776E-3,5C000400,-0724,0835,12117,024.9,045.3,0.261,764.3,01.16,0.508
2016-04-09 03:51:00,1959E-3,5C000400,-0724,0835,12051,024.9,045.3,0.261,764.3,01.16,0.508
2016-04-09 03:52:00,1691E-3,5C000400,-0724,0835,12343,024.9,045.3,0.261,764.3,01.16,0.508
2016-04-09 03:53:00,1800E-3,5C000400,-0724,0835,12044,025.0,045.3,0.260,764.3,01.16,0.508
2016-04-09 03:54:00,1864E-3,5C000400,-0724,0835,12137,024.9,045.3,0.261,764.3,01.16,0.508
2016-04-09 03:55:00,1706E-3,5C000400,-0724,0835,12149,024.9,045.3,0.261,764.3,01.16,0.508
2016-04-09 03:56:00,1806E-3,5C000400,-0724,0835,12213,024.9,045.3,0.260,764.3,01.16,0.508
2016-04-09 03:57:00,1754E-3,5C000400,-0724,0835,11995,024.9,045.3,0.261,764.3,01.16,0.508
2016-04-09 03:58:00,1794E-3,5C000400,-0724,0835,12111,025.0,045.3,0.261,764.3,01.16,0.508
2016-04-09 03:59:00,1774E-3,5C000400,-0724,0835,12261,024.9,045.3,0.261,764.3,01.16,0.508
2016-04-09 04:00:00,1802E-3,5C000400,-0724,0835,12043,025.0,045.3,0.260,764.3,01.16,0.508
2016-04-09 04:01:00,1724E-3,5C000400,-0724,0835,12149,024.9,045.3,0.261,764.3,01.16,0.508
2016-04-09 04:02:00,1900E-3,5C000400,-0724,0835,11994,025.0,045.3,0.261,764.3,01.16,0.508
2016-04-09 04:03:00,1741E-3,5C000400,-0724,0835,12226,025.0,045.3,0.260,764.3,01.16,0.508
2016-04-09 04:04:00,1856E-3,5C000400,-0724,0835,12215,025.0,045.3,0.261,764.3,01.16,0.508
2016-04-09 04:05:00,1835E-3,5C000400,-0724,0836,12129,025.0,045.3,0.261,764.3,01.16,0.508
2016-04-09 04:06:00,1840E-3,5C000400,-0724,0835,12093,025.0,045.3,0.261,764.3,01.16,0.508
2016-04-09 04:07:00,1853E-3,5C000400,-0724,0835,12178,025.0,045.3,0.261,764.2,01.16,0.508
2016-04-09 04:08:00,1739E-3,5C000400,-0724,0835,12178,025.0,045.3,0.261,764.2,01.16,0.508
2016-04-09 04:09:00,1812E-3,5C000400,-0724,0836,12282,025.0,045.3,0.261,764.2,01.16,0.508
2016-04-09 04:10:00,1743E-3,5C000400,-0724,0835,12111,025.0,045.3,0.261,764.2,01.16,0.508
2016-04-09 04:11:00,1718E-3,5C000400,-0724,0835,12030,025.0,045.3,0.261,764.2,01.16,0.508
2016-04-09 04:12:00,1806E-3,5C000400,-0724,0835,12224,025.0,045.3,0.261,764.2,01.16,0.508
2016-04-09 04:13:00,1736E-3,5C000400,-0724,0835,12117,025.1,045.4,0.261,764.2,01.16,0.508
2016-04-09 04:14:00,1805E-3,5C000400,-0724,0835,12138,025.0,045.4,0.260,764.2,01.16,0.508
2016-04-09 04:15:00,1727E-3,5C000400,-0724,0835,12057,025.1,045.3,0.260,764.2,01.16,0.508
2016-04-09 04:16:00,1757E-3,5C000400,-0724,0835,12186,025.0,045.3,0.261,764.2,01.16,0.508
2016-04-09 04:17:00,1698E-3,5C000400,-0724,0835,12096,025.1,045.3,0.261,764.2,01.16,0.508
2016-04-09 04:18:00,1831E-3,5C000400,-0724,0835,12137,025.1,045.3,0.261,764.2,01.16,0.508
2016-04-09 04:19:00,1670E-3,5C000400,-0724,0835,12096,025.1,045.3,0.260,764.2,01.16,0.508
2016-04-09 04:20:00,1832E-3,5C000400,-0724,0836,12214,025.1,045.3,0.260,764.2,01.16,0.508